Flag for Brazil Weather past 2 weeks in Porto Velho, Rondônia, Brazil

Now
75 °F

Scattered showers. Scattered clouds.


Feels Like: 76 °F
Forecast: 76 / 94 °F
Wind: 1 mph from Northeast

Location: Porto Velho Aeroporto

Current Time: Sep 3, 2015 at 3:50:53 PM

Latest Report: Sep 3, 2015 at 3:00 PM


Visibility: N/A

Pressure: 29.80 "Hg

Humidity: 78%

Dew point: 68 °F

Location of Porto VelhoLocation

Historic Weather in Porto Velho — Graph

°F

Porto Velho temperature yesterday

Maximum temperature yesterday: 97 °F (at 4:00 PM)
Minimum temperature yesterday: 73 °F (at 2:00 AM)
Average temperature yesterday: 83 °F

Past Weeks' High & Low Weather Summary

 TemperatureHumidityPressure
High99 °F (Aug 19, 3:00 PM)89% (Aug 24, 6:00 AM)30.07 "Hg (Aug 24, 6:00 AM)
Low72 °F (Aug 20, 5:00 AM)19% (Aug 19, 3:00 PM)29.71 "Hg (Aug 25, 4:00 PM)
Average82 °F65%29.85 "Hg
* Reported Aug 19 3:00 PM — Sep 3 3:00 PM, Porto Velho, Weather by CustomWeather, © 2015

Note: Actual official high and low records may vary slightly from our data, if they occured in-between our weather recording intervals... More about our weather records

Advertising

Porto Velho weather history for previous 24 hours

 ConditionsComfort  
Time TempWeatherWind HumidityBarometerVisibility
3:00 PM
Thu, Sep 3
75 °FScattered showers. Scattered clouds.1 mph78%N/AN/A
2:00 PM86 °FThunderstorms. Partly sunny.3 mph62%29.83 "HgN/A
1:00 PM91 °FScattered clouds.6 mph52%29.86 "HgN/A
12:00 PM90 °FPassing clouds.2 mph55%29.89 "HgN/A
11:00 AM88 °FSunny.5 mph59%29.92 "Hg10 mi
10:00 AM84 °FSunny.3 mph66%29.92 "Hg10 mi
9:00 AM81 °FSunny.2 mph74%29.92 "Hg10 mi
8:00 AM77 °FSunny.5 mph79%29.92 "Hg10 mi
7:00 AM75 °FPassing clouds.No wind83%29.89 "HgN/A
6:00 AM73 °FPassing clouds.No wind89%29.86 "Hg5 mi
5:00 AM75 °FPassing clouds.1 mph83%29.86 "HgN/A
4:00 AM77 °FPassing clouds.2 mph79%29.83 "HgN/A
3:00 AM77 °FPassing clouds.2 mph83%29.86 "Hg5 mi
2:00 AM79 °FPassing clouds.3 mph79%29.86 "Hg5 mi
1:00 AM81 °FPassing clouds.3 mph74%29.86 "Hg5 mi
12:00 AM79 °FPassing clouds.No wind79%29.86 "HgN/A
11:00 PM
Wed, Sep 2
81 °FPassing clouds.3 mph74%29.86 "HgN/A
10:00 PM81 °FClear.2 mph74%29.86 "Hg10 mi
9:00 PM81 °FClear.7 mph70%29.86 "Hg10 mi
8:00 PM82 °FClear.No wind66%29.83 "Hg10 mi
7:00 PM84 °FPassing clouds.1 mph62%29.80 "HgN/A
6:00 PM88 °FScattered clouds.1 mph55%29.80 "HgN/A
5:00 PM93 °FScattered clouds.2 mph47%29.77 "HgN/A
4:00 PM97 °FScattered clouds.2 mph37%29.80 "HgN/A
3:00 PM95 °FScattered clouds.2 mph39%29.83 "HgN/A
Weather by CustomWeather, © 2015

See weather overviewHow to use our weather pages